Location: Juzet
(42.9779°N, 0.7597°E)
Time: 02:41:49
(UTC+00:00)

Meteor 1-23 Rocket - Pass Details

Date: 14 July 2020
Orbit: 838 x 887 km, 81.3° (Epoch: 04 August)

Event Time Altitude Azimuth Distance (km) Brightness Sun altitude
Rises 02:26:15 0° 351° (N) 3,462 8.1 -17.5°
Reaches altitude 10° 02:28:41 10° 353° (N) 2,527 7.4 -17.2°
Maximum altitude 02:34:27 77° 79° (E) 906 4.4 -16.6°
Drops below altitude 10° 02:40:14 10° 166° (SSE) 2,536 6.3 -16.0°
Enters shadow 02:40:44 - 166° (SSE) 2,727 6.5 -15.9°
